Location: Paderno d�Adda
(45.6667°N, 9.4333°E)
Time: 22:21:52
(UTC+00:00)

CENTAUR R/B - Pass Details

Date: 21 January 2021
Orbit: 742 x 1446 km, 63.5° (Epoch: 07 March)

Event Time Altitude Azimuth Distance (km) Brightness Sun altitude
Rises 04:38:54 0° 156° (SSE) 3,349 5.7 -23.5°
Reaches altitude 10° 04:42:33 10° 131° (SE) 2,535 5.4 -22.8°
Maximum altitude 04:45:19 14° 102° (ESE) 2,381 5.6 -22.4°
Drops below altitude 10° 04:48:16 10° 74° (ENE) 2,752 5.8 -21.8°
Sets 04:52:32 0° 51° (NE) 3,877 6.3 -21.1°
